This demonstration page uses our WeatherBlox Daily Observations layout. Learn more.

Left ArrowRight Arrow

Hourly Observations for August 31, 2021

Temp ( °F °C ) Dew Point ( °F °C ) Humidity (%) Winds ( mph kmh ) Pressure ( in mb ) Visibility ( mi km ) Precip ( " mm )
6:30 am 06:30 Clear 66 19 64 18 94 94 N N/A 29.82 1010 10 16 N/A
6:45 am 06:45 Clear 64 18 64 18 100 100 N N/A 29.81 1009 10 16 N/A
7:45 am 07:45 Cloudy 64 18 64 18 100 100 N N/A 29.82 1010 10 16 N/A
8:45 am 08:45 Cloudy 66 19 66 19 100 100 N N/A 29.84 1010 10 16 N/A
9:45 am 09:45 Cloudy 68 20 66 19 94 94 N N/A 29.81 1010 10 16 N/A
10:45 am 10:45 Sunny 75 24 68 20 78 78 ENE 6 9 29.82 1010 10 16 N/A
11:45 am 11:45 Partly Cloudy 75 24 68 20 78 78 ESE 5 7 29.80 1009 10 16 N/A
12:30 pm 12:30 Mostly Cloudy 77 25 68 20 74 74 ESE 6 9 29.78 1009 10 16 N/A
12:45 pm 12:45 Mostly Cloudy 77 25 68 20 74 74 N N/A 29.77 1008 10 16 N/A
1:45 pm 13:45 Partly Cloudy 79 26 68 20 70 70 SE 6 9 29.75 1007 10 16 N/A
2:45 pm 14:45 Partly Cloudy 81 27 68 20 66 66 NE 6 9 29.73 1007 10 16 N/A
3:55 pm 15:55 Partly Cloudy 81 27 68 20 66 66 NE 9 15 29.70 1006 10 16 N/A
4:45 pm 16:45 Partly Cloudy 81 27 68 20 66 66 ENE 8 13 29.70 1006 10 16 N/A
5:14 pm 17:14 Cloudy with Light Rain 75 24 66 19 74 74 E 14 22 29.71 1006 5 8 N/A
5:45 pm 17:45 Cloudy with Light Rain 72 22 68 20 88 88 N 7 11 29.72 1006 4 6 N/A
5:56 pm 17:56 Cloudy with Light Rain 70 21 68 20 94 94 N 7 11 29.72 1007 3 4 N/A
6:07 pm 18:07 Cloudy with Light Rain 70 21 68 20 94 94 NE 7 11 29.72 1007 2 3 N/A
6:29 pm 18:29 Cloudy with Light Rain 70 21 68 20 94 94 ESE 7 11 29.70 1006 8 13 N/A
6:50 pm 18:50 Mostly Cloudy 72 22 68 20 88 88 ESE 7 11 29.71 1006 10 16 N/A
7:45 pm 19:45 Mostly Cloudy 72 22 68 20 88 88 E 3 6 29.70 1006 10 16 N/A
8:55 pm 20:55 Mostly Cloudy 72 22 68 20 88 88 N 6 9 29.70 1006 10 16 N/A
9:45 pm 21:45 Mostly Cloudy 72 22 68 20 88 88 ENE 6 9 29.70 1006 10 16 N/A

Powered by AerisWeather